| time (UTC) | temp F | wind direction | speed MPH | gust MPH | rain 1hr in | rain 24hr in | rain mn in | humidity % | barometer mb |
| 20260510223020 | 70 | 282 | 1.0 | 8.0 | 0.00 | 0.00 | 0.00 | 71 | 1002.1 |
| 20260510221517 | 69 | 249 | 1.0 | 9.0 | 0.00 | 0.00 | 0.00 | 71 | 1002.2 |
| 20260510220013 | 69 | 230 | 2.0 | 11.0 | 0.00 | 0.00 | 0.00 | 71 | 1002.2 |
| 20260510214507 | 70 | 251 | 2.0 | 8.0 | 0.00 | 0.00 | 0.00 | 71 | 1002.3 |
| 20260510213005 | 70 | 240 | 0.0 | 9.0 | 0.00 | 0.00 | 0.00 | 71 | 1002.3 |
| 20260510211602 | 70 | 286 | 2.0 | 7.0 | 0.00 | 0.00 | 0.00 | 71 | 1002.4 |
| 20260510210056 | 70 | 262 | 0.0 | 12.0 | 0.00 | 0.00 | 0.00 | 71 | 1002.5 |
| 20260510204557 | 70 | 245 | 0.0 | 7.0 | 0.00 | 0.00 | 0.00 | 71 | 1002.6 |
| 20260510203046 | 71 | 216 | 0.0 | 9.0 | 0.00 | 0.00 | 0.00 | 70 | 1002.5 |
| 20260510201542 | 72 | 236 | 0.0 | 5.0 | 0.00 | 0.00 | 0.00 | 69 | 1002.7 |
| 20260510200037 | 72 | 234 | 0.0 | 9.0 | 0.00 | 0.00 | 0.00 | 69 | 1002.5 |
| 20260510194533 | 72 | 171 | 0.0 | 7.0 | 0.00 | 0.00 | 0.00 | 68 | 1002.6 |
| 20260510193027 | 73 | 252 | 1.0 | 7.0 | 0.00 | 0.00 | 0.00 | 68 | 1002.7 |
| 20260510191524 | 73 | 251 | 0.0 | 9.0 | 0.00 | 0.00 | 0.00 | 68 | 1002.6 |
| 20260510190019 | 74 | 302 | 1.0 | 8.0 | 0.00 | 0.00 | 0.00 | 66 | 1002.6 |
| 20260510184515 | 76 | 260 | 1.0 | 3.0 | 0.00 | 0.00 | 0.00 | 64 | 1002.7 |
| 20260510183011 | 75 | 140 | 0.0 | 2.0 | 0.00 | 0.00 | 0.00 | 65 | 1002.7 |
| 20260510181510 | 74 | 129 | 0.0 | 2.0 | 0.00 | 0.00 | 0.00 | 67 | 1002.7 |
| 20260510180001 | 73 | 85 | 0.0 | 2.0 | 0.00 | 0.00 | 0.00 | 68 | 1002.6 |
| 20260510174601 | 72 | 83 | 0.0 | 2.0 | 0.00 | 0.00 | 0.00 | 69 | 1002.6 |
| 20260510173054 | 71 | 149 | 0.0 | 2.0 | 0.00 | 0.00 | 0.00 | 70 | 1002.6 |
| 20260510171549 | 70 | 157 | 0.0 | 2.0 | 0.00 | 0.00 | 0.00 | 69 | 1002.6 |
| 20260510170044 | 69 | 227 | 0.0 | 1.0 | 0.00 | 0.00 | 0.00 | 64 | 1002.6 |
| 20260510164543 | 66 | 229 | 0.0 | 3.0 | 0.00 | 0.00 | 0.00 | 55 | 1002.6 |
| 20260510163036 | 65 | 117 | 0.0 | 0.0 | 0.00 | 0.00 | 0.00 | 47 | 1002.7 |
| 20260510161534 | 65 | 116 | 0.0 | 1.0 | 0.00 | 0.00 | 0.00 | 41 | 1002.6 |
| 20260510160034 | 64 | 115 | 0.0 | 0.0 | 0.00 | 0.00 | 0.00 | 33 | 1002.4 |
| 20260510154523 | 63 | 109 | 0.0 | 0.0 | 0.00 | 0.00 | 0.00 | 22 | 1002.4 |
| 20260510153018 | 62 | 108 | 0.0 | 0.0 | 0.00 | 0.00 | 0.00 | 16 | 1002.4 |
| 20260510151514 | 62 | 109 | 0.0 | 0.0 | 0.00 | 0.00 | 0.00 | 10 | 1002.4 |
| 20260510150009 | 62 | 108 | 0.0 | 0.0 | 0.00 | 0.00 | 0.00 | 7 | 1002.4 |
| 20260510144508 | 61 | 108 | 0.0 | 1.0 | 0.00 | 0.00 | 0.00 | 4 | 1002.3 |
| 20260510143111 | 61 | 309 | 0.0 | 1.0 | 0.00 | 0.00 | 0.00 | 2 | 1002.2 |
| 20260510141557 | 61 | 312 | 0.0 | 1.0 | 0.00 | 0.00 | 0.00 | 100 | 1002.1 |
| 20260510140051 | 61 | 328 | 0.0 | 0.0 | 0.00 | 0.00 | 0.00 | 100 | 1002.0 |
| 20260510134547 | 61 | 328 | 0.0 | 0.0 | 0.00 | 0.00 | 0.00 | 100 | 1001.9 |
| 20260510133043 | 61 | 302 | 0.0 | 0.0 | 0.00 | 0.00 | 0.00 | 100 | 1001.8 |
| 20260510131538 | 61 | 302 | 0.0 | 0.0 | 0.00 | 0.00 | 0.00 | 100 | 1001.8 |
| 20260510130034 | 61 | 46 | 0.0 | 1.0 | 0.00 | 0.00 | 0.00 | 100 | 1001.7 |
| 20260510124529 | 61 | 46 | 0.0 | 3.0 | 0.00 | 0.00 | 0.00 | 100 | 1001.8 |
| 20260510123024 | 61 | 43 | 0.0 | 1.0 | 0.00 | 0.00 | 0.00 | 100 | 1001.7 |
| 20260510121521 | 61 | 43 | 0.0 | 0.0 | 0.00 | 0.00 | 0.00 | 100 | 1001.7 |
| 20260510120016 | 61 | 43 | 0.0 | 0.0 | 0.00 | 0.00 | 0.00 | 100 | 1001.7 |
| 20260510114512 | 61 | 43 | 0.0 | 0.0 | 0.00 | 0.00 | 0.00 | 100 | 1001.7 |
| 20260510113007 | 61 | 43 | 0.0 | 0.0 | 0.00 | 0.00 | 0.00 | 100 | 1001.6 |
| 20260510111504 | 61 | 43 | 0.0 | 2.0 | 0.00 | 0.00 | 0.00 | 100 | 1001.6 |
| 20260510110058 | 61 | 330 | 0.0 | 0.0 | 0.00 | 0.00 | 0.00 | 100 | 1001.6 |
| 20260510104555 | 61 | 330 | 0.0 | 1.0 | 0.00 | 0.00 | 0.00 | 100 | 1001.7 |
| 20260510103051 | 60 | 257 | 0.0 | 0.0 | 0.00 | 0.00 | 0.00 | 100 | 1001.6 |
| 20260510101547 | 60 | 258 | 0.0 | 0.0 | 0.00 | 0.00 | 0.00 | 100 | 1001.6 |
| 20260510100106 | 60 | 257 | 0.0 | 0.0 | 0.00 | 0.00 | 0.00 | 100 | 1001.7 |
| 20260510094538 | 60 | 257 | 0.0 | 0.0 | 0.00 | 0.00 | 0.00 | 100 | 1001.8 |
| 20260510093042 | 60 | 258 | 0.0 | 0.0 | 0.00 | 0.00 | 0.00 | 100 | 1001.7 |
| 20260510091531 | 60 | 257 | 0.0 | 0.0 | 0.00 | 0.00 | 0.00 | 100 | 1001.8 |
| 20260510090023 | 60 | 257 | 0.0 | 0.0 | 0.00 | 0.00 | 0.00 | 100 | 1001.9 |
| 20260510084528 | 60 | 257 | 0.0 | 0.0 | 0.00 | 0.00 | 0.00 | 100 | 1001.8 |
| 20260510083015 | 60 | 257 | 0.0 | 0.0 | 0.00 | 0.00 | 0.00 | 100 | 1001.8 |
| 20260510081521 | 60 | 257 | 0.0 | 0.0 | 0.00 | 0.00 | 0.00 | 100 | 1002.0 |
| 20260510080005 | 60 | 257 | 0.0 | 0.0 | 0.00 | 0.00 | 0.00 | 100 | 1002.1 |
| 20260510074501 | 60 | 257 | 0.0 | 0.0 | 0.00 | 0.00 | 0.00 | 100 | 1002.2 |
| 20260510073057 | 60 | 257 | 0.0 | 0.0 | 0.00 | 0.00 | 0.00 | 100 | 1002.3 |
| 20260510071557 | 59 | 257 | 0.0 | 0.0 | 0.00 | 0.00 | 0.00 | 100 | 1002.3 |
| 20260510070048 | 59 | 257 | 0.0 | 0.0 | 0.00 | 0.00 | 0.00 | 100 | 1002.3 |
| 20260510064647 | 59 | 257 | 0.0 | 0.0 | 0.00 | 0.00 | 0.00 | 100 | 1002.3 |
| 20260510063046 | 59 | 257 | 0.0 | 0.0 | 0.00 | 0.00 | 0.00 | 100 | 1002.3 |
| 20260510061548 | 59 | 257 | 0.0 | 0.0 | 0.00 | 0.00 | 0.00 | 100 | 1002.3 |
| 20260510060037 | 59 | 257 | 0.0 | 0.0 | 0.00 | 0.00 | 0.00 | 100 | 1002.3 |
| 20260510054533 | 59 | 257 | 0.0 | 0.0 | 0.00 | 0.00 | 0.00 | 100 | 1002.4 |
| 20260510053028 | 59 | 257 | 0.0 | 0.0 | 0.00 | 0.00 | 0.00 | 100 | 1002.4 |
| 20260510051525 | 59 | 257 | 0.0 | 1.0 | 0.00 | 0.00 | 0.00 | 100 | 1002.4 |
| 20260510050020 | 59 | 257 | 0.0 | 0.0 | 0.00 | 0.00 | 0.00 | 100 | 1002.4 |
| 20260510044516 | 59 | 257 | 0.0 | 2.0 | 0.00 | 0.00 | 0.00 | 100 | 1002.2 |
| 20260510043019 | 59 | 253 | 0.0 | 1.0 | 0.00 | 0.00 | 0.00 | 100 | 1002.3 |
| 20260510041506 | 59 | 251 | 0.0 | 2.0 | 0.00 | 0.00 | 0.00 | 2 | 1002.0 |
| 20260510040001 | 59 | 252 | 0.0 | 1.0 | 0.00 | 0.00 | 0.00 | 2 | 1001.9 |
| 20260510034610 | 60 | 257 | 0.0 | 4.0 | 0.00 | 0.00 | 0.00 | 1 | 1001.7 |
| 20260510033113 | 60 | 247 | 0.0 | 4.0 | 0.00 | 0.00 | 0.00 | 2 | 1001.6 |
| 20260510031554 | 60 | 260 | 0.0 | 3.0 | 0.00 | 0.00 | 0.00 | 13 | 1001.3 |
| 20260510030051 | 60 | 261 | 0.0 | 1.0 | 0.00 | 0.00 | 0.00 | 19 | 1001.3 |
| 20260510024555 | 61 | 257 | 0.0 | 1.0 | 0.00 | 0.00 | 0.00 | 25 | 1001.2 |
| 20260510023047 | 61 | 252 | 0.0 | 3.0 | 0.00 | 0.00 | 0.00 | 28 | 1001.0 |
| 20260510021548 | 61 | 263 | 0.0 | 5.0 | 0.00 | 0.00 | 0.00 | 31 | 1000.8 |
| 20260510020049 | 62 | 259 | 0.0 | 4.0 | 0.00 | 0.00 | 0.00 | 34 | 1000.8 |
| 20260510014546 | 62 | 252 | 0.0 | 4.0 | 0.00 | 0.00 | 0.00 | 52 | 1000.7 |
| 20260510013049 | 64 | 252 | 0.0 | 1.0 | 0.00 | 0.00 | 0.00 | 59 | 1000.7 |
| 20260510011553 | 64 | 256 | 0.0 | 5.0 | 0.00 | 0.00 | 0.00 | 61 | 1000.6 |
| 20260510010044 | 65 | 246 | 0.0 | 3.0 | 0.00 | 0.00 | 0.00 | 66 | 1000.5 |
| 20260510004548 | 66 | 173 | 0.0 | 7.0 | 0.00 | 0.00 | 0.00 | 70 | 1000.6 |
| 20260510003101 | 66 | 254 | 0.0 | 8.0 | 0.00 | 0.00 | 0.00 | 70 | 1000.5 |
| 20260510001543 | 67 | 247 | 1.0 | 8.0 | 0.00 | 0.00 | 0.00 | 72 | 1000.5 |
| 20260510000046 | 69 | 193 | 0.0 | 6.0 | 0.00 | 0.00 | 0.00 | 73 | 1000.6 |
| 20260509234558 | 70 | 256 | 1.0 | 8.0 | 0.00 | 0.00 | 0.00 | 72 | 1000.6 |
| 20260509233043 | 70 | 226 | 0.0 | 5.0 | 0.00 | 0.00 | 0.00 | 72 | 1000.7 |
| 20260509231551 | 71 | 234 | 0.0 | 5.0 | 0.00 | 0.00 | 0.00 | 72 | 1000.6 |
| 20260509230038 | 70 | 239 | 0.0 | 6.0 | 0.00 | 0.00 | 0.00 | 72 | 1000.6 |
| 20260509224539 | 70 | 249 | 1.0 | 9.0 | 0.00 | 0.00 | 0.00 | 72 | 1000.7 |